Location: Winthrop
(48.4780°N, 120.1850°W)
Time: 11:38:53
(UTC-07:00)

Vanguard 3 - Pass Details

Date: 05 February 2023
Orbit: 508 x 3249 km, 33.4° (Epoch: 27 March)

Event Time Altitude Azimuth Distance (km) Brightness Sun altitude
Rises 19:14:43 0° 238° (WSW) 4,144 11.7 -21.6°
Reaches altitude 10° 19:17:20 10° 229° (SW) 3,485 11.0 -22.0°
Maximum altitude 19:25:44 37° 166° (SSE) 2,799 9.7 -23.4°
Enters shadow 19:31:54 26° 125° (SE) 3,829 10.0 -24.4°
